This is the latest recevied weather packets stored in our database for station/object IK3ZGB. If no packets are shown the sender has not sent any weather packets the latest 10 day(s).
| Time | Temp. | Humidity | Pressure | Rain* | Wind** | Luminosity | Snow |
|---|---|---|---|---|---|---|---|
| 1777915725 | 23.33° C | 60% | 1014.7 hPa | - | - | - | - |
| 1777915124 | 23.33° C | 60% | 1014.8 hPa | - | - | - | - |
| 1777914524 | 23.33° C | 60% | 1014.9 hPa | - | - | - | - |
| 1777913926 | 23.89° C | 60% | 1014.8 hPa | - | - | - | - |
| 1777913325 | 23.89° C | 60% | 1014.8 hPa | - | - | - | - |
| 1777912725 | 24.44° C | 60% | 1014.6 hPa | - | - | - | - |
| 1777912125 | 24.44° C | 58% | 1014.7 hPa | - | - | - | - |
| 1777911526 | 25° C | 54% | 1014.8 hPa | - | - | - | - |
| 1777910926 | 25.56° C | 51% | 1014.9 hPa | - | - | - | - |
| 1777910325 | 25.56° C | 50% | 1014.8 hPa | - | - | - | - |
| 1777909724 | 25.56° C | 49% | 1014.8 hPa | - | - | - | - |
| 1777909125 | 25.56° C | 50% | 1014.8 hPa | - | - | - | - |
| 1777908526 | 25.56° C | 50% | 1015.1 hPa | - | - | - | - |
| 1777907925 | 25.56° C | 50% | 1014.9 hPa | - | - | - | - |
| 1777907326 | 25.56° C | 50% | 1014.8 hPa | - | - | - | - |
| 1777906725 | 25.56° C | 50% | 1015.1 hPa | - | - | - | - |
| 1777906126 | 25° C | 50% | 1015.1 hPa | - | - | - | - |
| 1777905525 | 26.11° C | 49% | 1015 hPa | - | - | - | - |
| 1777904926 | 26.11° C | 51% | 1015.1 hPa | - | - | - | - |
| 1777904325 | 26.11° C | 49% | 1015.4 hPa | - | - | - | - |
| 1777903725 | 26.11° C | 48% | 1015.7 hPa | - | - | - | - |
| 1777903124 | 26.11° C | 50% | 1015.4 hPa | - | - | - | - |
| 1777902524 | 26.11° C | 51% | 1015.7 hPa | - | - | - | - |
| 1777901925 | 26.11° C | 51% | 1015.8 hPa | - | - | - | - |
| 1777901325 | 25.56° C | 51% | 1015.8 hPa | - | - | - | - |
* Rain since midnight (hover to see other rain measurements)
** Current wind speed in m/s (hover to see current wind gust speed)